This is the latest recevied weather packets stored in our database for station/object KD9JJA. If no packets are shown the sender has not sent any weather packets the latest 10 day(s).
| Time | Temp. | Humidity | Pressure | Rain* | Wind** | Luminosity | Snow |
|---|---|---|---|---|---|---|---|
| 1778014303 | 15.56° C | 99% | 1009 hPa | 0 mm | - | 14 W/m² | - |
| 1778014000 | 15.56° C | 99% | 1008.9 hPa | 0 mm | - | 9 W/m² | - |
| 1778013697 | 15.56° C | 99% | 1008.7 hPa | 0 mm | - | 10 W/m² | - |
| 1778013393 | 16.11° C | 99% | 1008.9 hPa | 0 mm | - | 13 W/m² | - |
| 1778013091 | 16.11° C | 99% | 1009 hPa | 0 mm | - | 9 W/m² | - |
| 1778012781 | 16.11° C | 99% | 1009.1 hPa | 0 mm | - | 11 W/m² | - |
| 1778012477 | 16.11° C | 99% | 1009.1 hPa | 0 mm | - | 10 W/m² | - |
| 1778012174 | 16.11° C | 99% | 1009.2 hPa | 0 mm | - | 11 W/m² | - |
| 1778011871 | 16.11° C | 99% | 1009.1 hPa | 0 mm | - | 12 W/m² | - |
| 1778011563 | 15.56° C | 99% | 1009.1 hPa | 0 mm | - | 13 W/m² | - |
| 1778011260 | 15.56° C | 99% | 1009.2 hPa | 0 mm | - | 13 W/m² | - |
| 1778010956 | 15.56° C | 99% | 1009.1 hPa | 0 mm | - | 16 W/m² | - |
| 1778010654 | 15.56° C | 99% | 1009 hPa | 0 mm | - | 21 W/m² | - |
| 1778010350 | 15.56° C | 99% | 1008.9 hPa | 0 mm | - | 32 W/m² | - |
| 1778010046 | 15.56° C | 99% | 1009.2 hPa | 0 mm | - | 37 W/m² | - |
| 1778009743 | 15.56° C | 99% | 1009.1 hPa | 0 mm | - | 55 W/m² | - |
| 1778009440 | 15.56° C | 99% | 1009.3 hPa | 0 mm | - | 58 W/m² | - |
| 1778009139 | 15.56° C | 99% | 1009.4 hPa | 0 mm | - | 73 W/m² | - |
| 1778008837 | 15.56° C | 99% | 1009.6 hPa | 0 mm | - | 72 W/m² | - |
| 1778008534 | 15.56° C | 99% | 1009.3 hPa | 0 mm | - | 66 W/m² | - |
| 1778008232 | 15.56° C | 99% | 1009.4 hPa | 0 mm | - | 60 W/m² | - |
| 1778007927 | 15.56° C | 99% | 1009.6 hPa | 0 mm | - | 58 W/m² | - |
| 1778007623 | 15.56° C | 99% | 1009.5 hPa | 0 mm | - | 45 W/m² | - |
| 1778007319 | 15° C | 99% | 1009.5 hPa | 0 mm | - | 37 W/m² | - |
| 1778007016 | 15.56° C | 99% | 1009.7 hPa | 0 mm | - | 19 W/m² | - |
* Rain latest hour (hover to see other rain measurements)
** Current wind speed in m/s (hover to see current wind gust speed)